www.pogodaiklimat.ru
Время
и дата
08:53 19.07
09:53 19.07
10:53 19.07
11:53 19.07
12:53 19.07
13:53 19.07
14:53 19.07
15:53 19.07
16:53 19.07
17:53 19.07
18:53 19.07
19:53 19.07
20:53 19.07
21:53 19.07
22:53 19.07
23:53 19.07
00:53 20.07
01:53 20.07
02:53 20.07
03:53 20.07
04:53 20.07
05:53 20.07
06:53 20.07
07:53 20.07
08:53 20.07
09:53 20.07
10:53 20.07
11:53 20.07
12:53 20.07
13:53 20.07
14:53 20.07
15:53 20.07
16:53 20.07
17:53 20.07
18:53 20.07
19:53 20.07
20:53 20.07
21:53 20.07
22:53 20.07
23:53 20.07
00:53 21.07
01:53 21.07
02:53 21.07
03:53 21.07
04:53 21.07
05:53 21.07
06:53 21.07
07:53 21.07
Ветер
(напр.,м/с)
Видим. Явления Облачность Т
(С)
Тd
(С)
f
(%)
Тe
(С)
Тes
(С)
Комфортность P
(гПа)
Po
(гПа)
Тmin
(С)
Tmax
(С)
R
(мм)
R24
(мм)
S
(см)
штиль 0 16 км ясно +25.0 +11.1 42 +26 +36 жарко 1015.3 1001.4
СЗ 2 16 км ясно +30.0 +8.9 27 +29 +41 жарко 1014.7 1000.8 +16.1 +30.0
нст 2 16 км ясно +32.8 +8.9 23 +32 +48 жарко 1014.5 1000.8
ЮЗ 3 16 км ясно +35.6 +9.4 20 +34 +50 очень
жарко
1014.0 1000.1
ЮЗ 3 16 км ясно +37.2 +10.6 20 +36 +53 опасность
солнечного
удара
1013.4 999.4
З 7 16 км ясно +38.3 +10.0 18 +37 +42 очень
жарко
1012.8 998.8
З 7 16 км ясно +38.3 +6.7 15 +36 +41 очень
жарко
1012.1 998.4
З 8 16 км ясно +37.8 +7.2 15 +35 +38 очень
жарко
1011.4 997.4 +30.0 +38.9
З 7 16 км ясно +36.7 +8.3 18 +35 +37 очень
жарко
1011.1 997.4
З 5 16 км ясно +34.4 +9.4 22 +33 +35 жарко 1011.2 997.4
З 5 16 км ясно +31.7 +7.8 23 +31 +31 жарко 1011.7 997.8
штиль 0 16 км ясно +28.3 +10.0 32 +29 +29 жарко 1012.3 998.4
З 2 16 км ясно +25.6 +11.1 40 +27 +27 жарко 1012.7 998.8
З 5 16 км ясно +24.4 +8.9 37 +25 +25 комфорт 1012.5 998.8 +24.4 +37.8
З 2 16 км ясно +23.3 +11.1 46 +26 +26 жарко 1012.4 998.4
З 4 16 км ясно +22.2 +10.0 46 +24 +24 комфорт 1012.1 998.4
СЗ 3 16 км ясно +20.6 +11.1 54 +23 +23 комфорт 1012.0 998.1
З 3 14 км ясно +19.4 +11.1 59 +21 +21 комфорт 1011.8 998.1
З 3 16 км ясно +17.8 +11.1 65 +18 +18 1011.6 997.8
З 2 14 км ясно +17.8 +11.1 65 +18 +18 1011.6 997.8 +17.2 +25.0
З 2 16 км ясно +17.8 +11.1 65 +18 +18 1012.0 998.1
штиль 0 16 км ясно +18.9 +12.2 65 +20 +20 1012.3 998.4
штиль 0 16 км ясно +21.1 +11.7 55 +23 +24 комфорт 1012.9 999.1
штиль 0 16 км ясно +23.3 +12.8 52 +26 +31 жарко 1013.2 999.4
З 3 16 км ясно +26.1 +12.8 44 +28 +34 жарко 1013.0 999.1
ЮЗ 3 16 км ясно +28.3 +12.8 38 +30 +39 жарко 1012.8 998.8 +17.8 +28.3
нст 3 16 км ясно +30.6 +13.3 35 +32 +45 жарко 1012.4 998.4
З 6 16 км ясно +32.2 +11.7 29 +32 +40 жарко 1012.2 998.4
СЗ 7 16 км ясно +33.3 +9.4 23 +32 +38 жарко 1011.9 998.1
З 7 16 км ясно +33.3 +11.7 27 +33 +39 жарко 1011.7 997.8
З 5 16 км ясно +32.8 +12.2 29 +33 +42 жарко 1011.3 997.4
З 6 16 км ясно +31.1 +11.7 30 +31 +36 жарко 1011.1 997.4 +28.3 +34.4
З 4 16 км ясно +28.3 +13.3 40 +30 +36 жарко 1011.2 997.4
ЮЗ 6 16 км ясно +26.1 +11.7 41 +27 +29 жарко 1011.6 997.8
З 4
{9}
16 км ясно +23.3 +11.7 48 +26 +27 жарко 1012.1 998.1
З 5
{8}
16 км ясно +21.7 +11.7 53 +24 +24 комфорт 1012.7 998.8
СЗ 3 16 км ясно +18.3 +12.8 70 +19 +19 1013.2 999.1
СЗ 4 14 км ясно +17.2 +12.2 72 +17 +17 1013.4 999.4 +17.2 +31.1
СЗ 5 14 км ясно +16.1 +11.7 75 +15 +15 1013.6 999.8
З 4 10 км мгла ясно +15.6 +11.7 78 +15 +15 1013.5 999.8
З 4 10 км мгла ясно +15.0 +11.7 81 +14 +14 1013.6 999.8
З 5 10 км мгла ясно +14.4 +11.7 84 +13 +13 1013.5 999.4
СЗ 4 10 км дымка ясно +14.4 +12.2 87 +13 +13 1013.2 999.4
З 4 13 км ясно +14.4 +11.7 84 +13 +13 1013.4 999.4 +13.9 +17.2
СЗ 2 14 км ясно +13.9 +12.2 89 +13 +13 1013.7 999.8
З 4 11 км ясно +14.4 +12.2 87 +13 +13 1014.0 1000.1
З 4 11 км 2/2 420 м +16.1 +12.2 78 +15 +16 1014.1 1000.1
З 5 13 км ясно +17.8 +12.2 70 +17 +19 1014.3 1000.4
Местоположение метеостанции Livermore Municipal Airport: широта 37.6928 долгота -121.8144 высота над уровнем моря 120 м.
В архиве по умолчанию представлена погода в Ливерморе за последние 1-2 суток. Обновление информации о фактической погоде в базе происходит ежечасно! Архивные данные за месяц целиком и за предыдущие месяцы Вы можете получить, выбрав интересующий диапазон дат из раскрывающегося списка и нажав кнопку "Ввод!".
Внимание! Архив погоды МЕТАР в базе сайта по станциям, не включенным в климатический монитор, хранится не более 60 дней. Нет смысла пытаться выбрать более раннюю дату.
*Определитесь, кто Вы:
Внимание! Время в таблицах - местное (без учета летнего времени). Для получения всемирного времени необходимо вычесть поправку, которая равна -8 ч.
Смотрите также архив погоды в соседних городах и на ближайших метеорологических станциях:
Партнеры нашего сайта:      
Пояснения к столбцам:
  • Ветер - указаны скорость ветра в м/с - средняя за 10 мин, порывы в срок и между сроками (в фигурных скобках) и направление, откуда дует ветер: С - северный,
  • СВ - северо-восточный, В - восточный, ЮВ - юго-восточный, Ю - южный, ЮЗ - юго-западный, З - западный, СЗ - северо-западный.
  • Видимость - горизонтальная дальность видимости в метрах или километрах. При видимости от 1 до 10 км при отсутствии осадков обычно наблюдается дымка, при ухудшении видимости до 1 км и менее - туман. В сухую погоду видимость может ухудшаться дымом, пылью или мглою.
  • Явления - указаны атмосферные явления, наблюдавшиеся в срок или в последний час перед сроком; фигурными скобками обозначены явления, наблюдавшиеся между сроками (за 1-3 часа до срока); квадратными скобками обозначены град или гололедные отложения с указанием их диаметра в мм.
  • Облачность - указаны через наклонную черту общая и нижняя облачность в баллах и высота нижней границы облаков в метрах; квадратными скобками обозначены формы облаков: Ci - перистые, Cs - перисто-слоистые, Cc - перисто-кучевые, Ac - высококучевые, As - высокослоистые, Sc - слоисто-кучевые, Ns - слоисто-дождевые, Cu - кучевые, Cb - кучево-дождевые. Подробнее классификацию облаков см. в Атласе облаков (PDF).
  • T - Температура воздуха - температура, измеренная на высоте 2 м над землей.
  • Td - Температура точки росы - температура, при понижении до которой содержащийся в воздухе водяной пар достигнет насыщения.
  • f - Относительная влажность воздуха - влажноcть воздуха, измеренная на высоте 2 м над землей.
  • Te - Эффективная температура - температура, которую ощущает одетый по сезону человек в тени. Характеристика душности погоды. При расчете учитывается влияние влажности воздуха и скорости ветра на теплоощущения человека.
  • Tes - Эффективная температура на солнце - температура, которую ощущает человек, с поправкой на солнечный нагрев. Характеристика знойности погоды. Зависит от высоты солнца над горизонтом, облачности и скорости ветра. Ночью, в пасмурную погоду, а также при ветре 12 м/с и более поправка равна нулю.
  • P - Атмосферное давление - приведенное к уровню моря атмосферное давление.
  • Po - Атмосферное давление - измеренное на уровне метеостанции атмосферное давление.
  • Tmin - Минимальная температура - минимум температуры воздуха на высоте 2 м над землей.
  • Tmax - Максимальная температура - максимум температуры воздуха на высоте 2 м над землей.
  • R - Количество осадков - Количество выпавших осадков за период времени, мм. При наведении курсора мыши на число - период времени, за который выпало указанное количество осадков.
  • R24 - Количество осадков - Количество выпавших осадков за 24 часа, мм.
  • S - Снежный покров - Высота снежного покрова, см. При наведении курсора мыши на число - состояние снежного покрова и степень покрытия местности в баллах.